{"data":{"norad_id":67866,"epoch":"2026-09-19T21:42:10.133280Z","epoch_age_seconds":114770,"freshness":"FRESH","line1":"1 67866U 26034S   26262.90428395  .00017472  00000+0  52682-3 0  9992","line2":"2 67866  53.1616  20.5185 0001252  90.9996 269.1150 15.34413631 33797","mean_motion":15.34413631,"eccentricity":0.0001252,"inclination_deg":53.1616,"raan_deg":20.5185,"arg_perigee_deg":90.9996,"mean_anomaly_deg":269.115,"bstar":0.00052682,"rev_number":3379,"period_min":93.846924382543,"perigee_km":461.80625817669,"apogee_km":463.51919442816,"semimajor_km":6840.7997263024,"source":"CELESTRAK","updated_at":"2026-09-20T09:00:43.691832Z"}}